Back to catalog

CZ-6A DEB

AlivePO
NORAD 55235·DEBRIS·🇨🇳 China

Launched Nov 11, 2022 from Taiyuan Satellite Launch Center

Loading…

Next Passes (next 24 hours)

TLE

FreshSource: Space-Track

Epoch: Sep 13, 2026, 17:09 UTC

1 55235U 22151XC  26256.71461678  .00005834  00000-0  92154-3 0  9996
2 55235  98.6323 328.3431 0070851   6.6646 353.5484 14.71087531201772

Track CZ-6A DEB in real time with AllMySat

Download on the App Store